User: anonymous   Login
Location: Clatteringshaws Loch
(55.0508°N, 4.2860°W)
Time: 23:03:10
(UTC+01:00)
Language:

Sapphire - Orbit

View from above orbital plane
View from above orbital plane
View from above satellite
View from above satellite

Ground track
Ground track

The orbit data is extracted from the following two-line orbital elements,

1 26932U 01043D   16207.22684665 -.00000044  00000-0  15161-4 0  9992
2 26932  67.0542 216.6507 0007296 248.3103 111.7221 14.30218278773615
Epoch (UTC): 25 July 2016 05:26:39
Eccentricity: 0.0007296
inclination: 67.0542°
perigee height: 786 km
apogee height: 796 km
right ascension of ascending node: 216.6507°
argument of perigee: 248.3103°
revolutions per day: 14.30218278
mean anomaly at epoch: 111.7221°
orbit number at epoch: 77361

The dashed part of the orbit path shows where the satellite is in the earth's shadow,  

DLR